Beckley, WV

8:52 AM EST on December 16, 2017 (GMT -0500)
Raleigh County Memorial

Weather History for KBKW - April, 2013

Change the Weather History Date:

Wednesday, April 10, 2013

  Actual Average Record
Temperature  
Mean Temperature 68 °F 50 °F  
Max Temperature 83 °F 61 °F 83 °F (2013)
Min Temperature 53 °F 40 °F 11 °F (1985)
Degree Days  
Heating Degree Days 0 15  
Month to date heating degree days 161 162  
Since 1 July heating degree days 4889 4875  
Cooling Degree Days 3 0  
Month to date cooling degree days 5 0  
Year to date cooling degree days 5 1  
Growing Degree Days 18 (Base 50)    
Moisture  
Dew Point 47 °F    
Average Humidity 51    
Maximum Humidity 77    
Minimum Humidity 24    
Precipitation  
Precipitation 0.00 in 0.11 in 1.01 in (2003)
Month to date precipitation 0.91 1.07  
Year to date precipitation 9.25 10.21  
Snow  
Snow 0.00 in - - ()
Month to date snowfall 0.0  
Since 1 September snowfall 72.0  
Snow Depth 0.00 in    
Sea Level Pressure  
Sea Level Pressure 29.97 in    
Wind  
Wind Speed 7 mph (SW)    
Max Wind Speed 18 mph    
Max Gust Speed 25 mph    
Visibility 10 miles    
Events      
T = Trace of Precipitation, MM = Missing Value Source: NWS Daily Summary

Daily Weather History Graph

Daily Weather History Graph

Search for Another Location

Airport or City:

Trip Planner

Search our weather history database for the weather conditions in past years. The results will help you decide how hot, cold, wet, or windy it might be!

Date:

Astronomy

Apr. 10, 2013 Rise Set
Actual Time 6:56 AM EDT 7:55 PM EDT
Civil Twilight 6:29 AM EDT 8:22 PM EDT
Nautical Twilight 5:57 AM EDT 8:54 PM EDT
Astronomical Twilight 5:24 AM EDT 9:27 PM EDT
Moon 6:51 AM EDT (4/10) 8:29 PM EDT (4/10)
Length of Visible Light 13h 53m
Length of Day
12h 59m
New Moon, 0% of the Moon is Illuminated
Apr 10
New Moon
Apr 18
First Quarter
Apr 25
Full
May 2
Last Quarter
May 9
New

Hourly Weather History & Observations

Time (EDT) Temp. Dew Point Humidity Pressure Visibility Wind Dir Wind Speed Gust Speed Precip Events Conditions
12:51 AM 64.0 °F 44.1 °F 48% 30.00 in 10.0 mi South 4.6 mph - N/A   Clear
1:51 AM 64.0 °F 44.1 °F 48% 30.01 in 10.0 mi SW 3.5 mph - N/A   Clear
2:51 AM 63.0 °F 46.0 °F 54% 30.02 in 10.0 mi SW 6.9 mph - N/A   Clear
3:51 AM 60.1 °F 46.0 °F 60% 30.02 in 10.0 mi SW 4.6 mph - N/A   Clear
4:51 AM 59.0 °F 46.0 °F 62% 30.03 in 10.0 mi SW 3.5 mph - N/A   Clear
5:51 AM 57.0 °F 46.9 °F 69% 30.03 in 10.0 mi Calm Calm - N/A   Clear
6:51 AM 55.9 °F 48.0 °F 75% 30.04 in 10.0 mi Calm Calm - N/A   Scattered Clouds
7:51 AM 63.0 °F 50.0 °F 63% 30.04 in 10.0 mi SW 5.8 mph - N/A   Clear
8:51 AM 64.9 °F 50.0 °F 58% 30.05 in 10.0 mi SW 6.9 mph - N/A   Clear
9:51 AM 70.0 °F 51.1 °F 51% 30.05 in 10.0 mi WSW 6.9 mph - N/A   Partly Cloudy
10:51 AM 73.0 °F 51.1 °F 46% 30.05 in 10.0 mi WSW 11.5 mph 19.6 mph N/A   Clear
11:51 AM 75.0 °F 52.0 °F 44% 30.03 in 10.0 mi WSW 10.4 mph 18.4 mph N/A   Clear
12:51 PM 77.0 °F 52.0 °F 42% 30.01 in 10.0 mi West 9.2 mph 21.9 mph N/A   Partly Cloudy
1:51 PM 79.0 °F 52.0 °F 39% 29.97 in 10.0 mi West 9.2 mph - N/A   Clear
2:51 PM 82.0 °F 50.0 °F 33% 29.95 in 10.0 mi WSW 8.1 mph - N/A   Partly Cloudy
3:51 PM 82.0 °F 48.9 °F 31% 29.92 in 10.0 mi WSW 9.2 mph 19.6 mph N/A   Partly Cloudy
4:51 PM 82.9 °F 46.9 °F 28% 29.90 in 10.0 mi WSW 12.7 mph 20.7 mph N/A   Clear
5:51 PM 82.0 °F 43.0 °F 25% 29.88 in 10.0 mi SW 16.1 mph 25.3 mph N/A   Clear
6:51 PM 81.0 °F 43.0 °F 26% 29.88 in 10.0 mi WSW 11.5 mph 20.7 mph N/A   Clear
7:51 PM 77.0 °F 46.0 °F 33% 29.87 in 10.0 mi SSW 9.2 mph - N/A   Clear
8:51 PM 73.9 °F 44.1 °F 34% 29.87 in 10.0 mi SSW 6.9 mph - N/A   Clear
9:51 PM 68.0 °F 45.0 °F 43% 29.88 in 10.0 mi South 3.5 mph - N/A   Clear
10:51 PM 64.4 °F 44.6 °F 49% 29.96 in 10.0 mi South 3.5 mph - N/A   Clear
11:51 PM 68.0 °F 43.0 °F 40% 29.86 in 10.0 mi SSE 5.8 mph - N/A   Clear